Regional Weather Roundup
Issued by NWS

Home | Current Version | Previous Version | Graphics & Text | Print | Product List | Glossary On
Versions: 1 2 3 4 5 6 7 8 9 10 11 12 13 14 15 16 17 18 19 20 21 22 23 24 25 26 27
000
ASUS45 KSLC 221410
RWRUT

UTAH REGIONAL WEATHER ROUNDUP
NATIONAL WEATHER SERVICE SALT LAKE CITY UT
800 AM MDT TUE AUG 22 2017

UTZ001>011-023>025-221500-

NORTHERN UTAH

CITY           SKY/WX    TMP DP  RH WIND       PRES   REMARKS
BRIGHAM CITY   SUNNY     58  37  45 NW5       30.21R
DUGWAY         PTSUNNY   73  42  33 S7        30.21R
HILL AFB       NOT AVBL
LOGAN          SUNNY     53  44  71 CALM      30.24R
OGDEN          MOSUNNY   67  42  40 S7        30.20R
SALT LAKE CITY PTSUNNY   74  47  38 SE5       30.18R
TOOELE VALLEY  PTSUNNY   72  45  37 S8        30.19S
WENDOVER       CLOUDY    70  35  27 CALM      30.20R
HEBER CITY     MOSUNNY   54  45  71 CALM      30.31R
WEST JORDAN    MOSUNNY   71  55  57 S10       30.22R

$$

UTZ011>015-024>027-221500-

CENTRAL/NORTHEAST UTAH

CITY           SKY/WX    TMP DP  RH WIND       PRES   REMARKS
PROVO AIRPORT  PTSUNNY   66  50  55 VRB3      30.26R
MOAB/CANYONLAN CLOUDY    73  43  33 CALM      30.21R
DELTA          CLOUDY    68  46  45 CALM      30.26R
PRICE          MOSUNNY   69  39  33 W3        30.30R
ROOSEVELT      SUNNY     61  45  55 CALM      30.30R
VERNAL         SUNNY     66  41  40 W5        30.28R

$$

UTZ013>016-019>022-027-221500-

SOUTHERN UTAH

CITY           SKY/WX    TMP DP  RH WIND       PRES   REMARKS
BRYCE CANYON   CLOUDY    54  51  90 W3        30.48R
CEDAR CITY     CLOUDY    65  49  56 MISG      30.30S
MILFORD        PTSUNNY   64  51  62 S8        30.28R
ST GEORGE      MOSUNNY   73  54  51 S7        30.15R
HANKSVILLE     CLOUDY    68  41  37 W3        30.24R
BLANDING       CLOUDY    65  48  55 CALM      30.40R

$$

REGIONAL REPORTS     COLORADO/ARIZONA

CITY           SKY/WX    TMP DP  RH WIND       PRES   REMARKS
CRAIG, CO      SUNNY     52  38  58 CALM      30.37R
GRAND JUNCTION MOSUNNY   74  42  31 E12       30.25R
RIFLE, CO      CLOUDY    59  41  51 CALM      30.33R
MONTROSE, CO   CLOUDY    59  45  59 SE5       30.36R
CORTEZ, CO     CLOUDY    57  52  83 E3        30.34R
COLORADO CITY    N/A     66  54  63 NE10      30.30R
PAGE, AZ       LGT RAIN  72  56  57 W6        30.23R
GRAND CANYON   PTSUNNY   58  52  80 NE6       30.38S
KINGMAN, AZ    SUNNY     63  56  78 CALM      30.16R
FLAGSTAFF, AZ  SUNNY     53  52  96 CALM      30.39R

$$

REGIONAL REPORTS    NEVADA/IDAHO/WYOMING

CITY           SKY/WX    TMP DP  RH WIND       PRES   REMARKS
LAS VEGAS, NV  MOSUNNY   78  53  41 S3        30.08R
ELY, NY        CLOUDY    60  48  64 S9        30.34R
ELKO, NV       MOSUNNY   62  33  33 NE7       30.24R
POCATELLO, ID  SUNNY     52  36  54 CALM      30.24R
BURLEY, ID     SUNNY     50  42  74 CALM      30.19R
FORT BRIDGER,    N/A     60  33  35 CALM      30.41R
EVANSTON, WY   CLOUDY    58  37  45 SE5       30.39R
ROCK SPRINGS,  SUNNY     56  35  45 CALM      30.38R
KEMMERER, WY     N/A     46  32  57 N8        30.40S

$$




USA.gov is the U.S. government's official web portal to all federal, state and local government web resources and services.